Time,TemperatureF,DewpointF,PressureIn,WindDirection,WindDirectionDegrees,WindSpeedMPH,WindSpeedGustMPH,Humidity,HourlyPrecipIn,Conditions,Clouds,dailyrainin,SolarRadiationWatts/m^2,SoftwareType,DateUTC
2013-03-14 00:00:00,30.3,20.7,29.78,NW,305,0.0,0.0,67,0.00,,CLR,0.00,0.00,VWS V14.01,2013-03-14 04:00:00,
2013-03-14 00:05:00,30.2,20.6,29.78,NW,305,0.0,0.0,67,0.00,,CLR,0.00,0.00,VWS V14.01,2013-03-14 04:05:00,
2013-03-14 00:10:00,30.1,20.8,29.78,NW,305,0.0,0.0,68,0.00,,CLR,0.00,0.00,VWS V14.01,2013-03-14 04:10:00,
2013-03-14 00:15:00,29.9,21.0,29.78,NW,305,0.0,0.0,69,0.00,,CLR,0.00,0.00,VWS V14.01,2013-03-14 04:15:00,
2013-03-14 00:20:00,29.7,20.8,29.78,NW,305,0.0,0.0,69,0.00,,CLR,0.00,0.00,VWS V14.01,2013-03-14 04:20:00,
2013-03-14 00:25:00,29.6,20.7,29.78,NW,305,0.0,0.0,69,0.00,,CLR,0.00,0.00,VWS V14.01,2013-03-14 04:25:00,
2013-03-14 00:31:00,29.4,20.8,29.78,NW,305,0.0,0.0,70,0.00,,CLR,0.00,0.00,VWS V14.01,2013-03-14 04:31:00,
2013-03-14 00:36:00,29.5,20.9,29.78,NW,305,0.0,0.0,70,0.00,,CLR,0.00,0.00,VWS V14.01,2013-03-14 04:36:00,
2013-03-14 00:41:00,29.5,20.9,29.78,NW,305,0.0,0.0,70,0.00,,CLR,0.00,0.00,VWS V14.01,2013-03-14 04:41:00,
2013-03-14 00:46:00,29.6,21.0,29.78,NW,305,0.0,0.0,70,0.00,,CLR,0.00,0.00,VWS V14.01,2013-03-14 04:46:00,
2013-03-14 00:51:00,29.6,21.4,29.78,NW,305,0.0,0.0,71,0.00,,CLR,0.00,0.00,VWS V14.01,2013-03-14 04:51:00,
2013-03-14 00:56:00,29.6,21.4,29.78,NW,305,0.0,0.0,71,0.00,,CLR,0.00,0.00,VWS V14.01,2013-03-14 04:56:00,
2013-03-14 01:01:00,29.6,21.4,29.78,NW,305,0.0,0.0,71,0.00,,CLR,0.00,0.00,VWS V14.01,2013-03-14 05:01:00,
2013-03-14 01:06:00,29.5,21.3,29.78,NW,305,0.0,0.0,71,0.00,,CLR,0.00,0.00,VWS V14.01,2013-03-14 05:06:00,
2013-03-14 01:11:00,29.4,21.2,29.78,NW,305,0.0,0.0,71,0.00,,CLR,0.00,0.00,VWS V14.01,2013-03-14 05:11:00,
2013-03-14 01:16:00,29.5,21.3,29.78,NW,305,0.0,0.0,71,0.00,,CLR,0.00,0.00,VWS V14.01,2013-03-14 05:16:00,
2013-03-14 01:22:00,29.6,21.7,29.78,NW,305,0.0,0.0,72,0.00,,CLR,0.00,0.00,VWS V14.01,2013-03-14 05:22:00,
2013-03-14 01:27:00,29.7,21.8,29.78,NW,305,0.0,0.0,72,0.00,,CLR,0.00,0.00,VWS V14.01,2013-03-14 05:27:00,
2013-03-14 01:32:00,29.8,21.9,29.77,NW,305,0.0,0.0,72,0.00,,CLR,0.00,0.00,VWS V14.01,2013-03-14 05:32:00,
2013-03-14 01:37:00,29.7,21.5,29.77,NW,305,0.0,0.0,71,0.00,,CLR,0.00,0.00,VWS V14.01,2013-03-14 05:37:00,
2013-03-14 01:42:00,29.6,21.7,29.77,NW,305,0.0,0.0,72,0.00,,CLR,0.00,0.00,VWS V14.01,2013-03-14 05:42:00,
2013-03-14 01:47:00,29.5,21.6,29.77,NW,305,0.0,0.0,72,0.00,,CLR,0.00,0.00,VWS V14.01,2013-03-14 05:47:00,
2013-03-14 01:52:00,29.4,21.8,29.77,NW,305,0.0,0.0,73,0.00,,CLR,0.00,0.00,VWS V14.01,2013-03-14 05:52:00,
2013-03-14 01:57:00,29.4,21.8,29.77,NW,305,0.0,0.0,73,0.00,,CLR,0.00,0.00,VWS V14.01,2013-03-14 05:57:00,
2013-03-14 02:02:00,29.4,22.1,29.77,NW,305,0.0,0.0,74,0.00,,CLR,0.00,0.00,VWS V14.01,2013-03-14 06:02:00,
2013-03-14 02:07:00,29.4,22.5,29.77,NW,305,0.0,0.0,75,0.00,,CLR,0.00,0.00,VWS V14.01,2013-03-14 06:07:00,
2013-03-14 02:12:00,29.5,22.6,29.77,NW,305,0.0,0.0,75,0.00,,CLR,0.00,0.00,VWS V14.01,2013-03-14 06:12:00,
2013-03-14 02:17:00,29.5,22.6,29.77,NW,305,0.0,0.0,75,0.00,,CLR,0.00,0.00,VWS V14.01,2013-03-14 06:17:00,
2013-03-14 02:22:00,29.5,22.6,29.77,NW,305,0.0,0.0,75,0.00,,CLR,0.00,0.00,VWS V14.01,2013-03-14 06:22:00,
2013-03-14 02:28:00,29.5,22.6,29.77,NW,305,0.0,0.0,75,0.00,,CLR,0.00,0.00,VWS V14.01,2013-03-14 06:28:00,
2013-03-14 02:33:00,29.5,22.9,29.77,NW,305,0.0,0.0,76,0.00,,CLR,0.00,0.00,VWS V14.01,2013-03-14 06:33:00,
2013-03-14 02:38:00,29.4,22.8,29.77,NW,305,0.0,0.0,76,0.00,,CLR,0.00,0.00,VWS V14.01,2013-03-14 06:38:00,
2013-03-14 02:43:00,29.4,22.8,29.77,NW,305,0.0,0.0,76,0.00,,CLR,0.00,0.00,VWS V14.01,2013-03-14 06:43:00,
2013-03-14 02:48:00,29.5,22.9,29.77,NW,305,0.0,0.0,76,0.00,,CLR,0.00,0.00,VWS V14.01,2013-03-14 06:48:00,
2013-03-14 02:53:00,29.4,22.8,29.77,NW,305,0.0,0.0,76,0.00,,CLR,0.00,0.00,VWS V14.01,2013-03-14 06:53:00,
2013-03-14 02:58:00,29.5,23.2,29.77,NW,305,0.0,0.0,77,0.00,,CLR,0.00,0.00,VWS V14.01,2013-03-14 06:58:00,
2013-03-14 03:03:00,29.4,23.1,29.77,NW,305,0.0,0.0,77,0.00,,CLR,0.00,0.00,VWS V14.01,2013-03-14 07:03:00,
2013-03-14 03:08:00,29.3,23.0,29.77,NW,305,0.0,0.0,77,0.00,,CLR,0.00,0.00,VWS V14.01,2013-03-14 07:08:00,
2013-03-14 03:13:00,29.2,22.9,29.77,NW,305,0.0,0.0,77,0.00,,CLR,0.00,0.00,VWS V14.01,2013-03-14 07:13:00,
2013-03-14 03:18:00,29.2,23.2,29.77,NW,305,0.0,0.0,78,0.00,,CLR,0.00,0.00,VWS V14.01,2013-03-14 07:18:00,
2013-03-14 03:23:00,29.2,23.2,29.77,NW,305,0.0,0.0,78,0.00,,CLR,0.00,0.00,VWS V14.01,2013-03-14 07:23:00,
2013-03-14 03:28:00,29.2,23.2,29.77,NW,305,0.0,0.0,78,0.00,,CLR,0.00,0.00,VWS V14.01,2013-03-14 07:28:00,
2013-03-14 03:33:00,29.3,23.6,29.77,NW,305,0.0,0.0,79,0.00,,CLR,0.00,0.00,VWS V14.01,2013-03-14 07:33:00,
2013-03-14 03:38:00,29.3,23.6,29.76,NW,305,0.0,0.0,79,0.00,,CLR,0.00,0.00,VWS V14.01,2013-03-14 07:38:00,
2013-03-14 03:43:00,29.2,23.5,29.76,NW,305,0.0,0.0,79,0.00,,CLR,0.00,0.00,VWS V14.01,2013-03-14 07:43:00,
2013-03-14 03:48:00,29.2,23.5,29.76,NW,305,0.0,0.0,79,0.00,,CLR,0.00,0.00,VWS V14.01,2013-03-14 07:48:00,
2013-03-14 03:53:00,29.2,23.5,29.76,NW,305,0.0,0.0,79,0.00,,CLR,0.00,0.00,VWS V14.01,2013-03-14 07:53:00,
2013-03-14 03:58:00,29.3,23.6,29.76,NW,305,0.0,0.0,79,0.00,,CLR,0.00,0.00,VWS V14.01,2013-03-14 07:58:00,
2013-03-14 04:03:00,29.3,23.6,29.76,NW,305,0.0,0.0,79,0.00,,FEW090,0.00,0.00,VWS V14.01,2013-03-14 08:03:00,
2013-03-14 04:08:00,29.4,23.7,29.76,NW,305,0.0,0.0,79,0.00,,FEW090,0.00,0.00,VWS V14.01,2013-03-14 08:08:00,
2013-03-14 04:13:00,29.3,23.3,29.76,NW,305,0.0,0.0,78,0.00,,FEW090,0.00,0.00,VWS V14.01,2013-03-14 08:13:00,
2013-03-14 04:18:00,29.2,23.2,29.76,NW,305,0.0,0.0,78,0.00,,FEW090,0.00,0.00,VWS V14.01,2013-03-14 08:18:00,
2013-03-14 04:23:00,29.2,23.5,29.76,NW,305,0.0,0.0,79,0.00,,FEW090,0.00,0.00,VWS V14.01,2013-03-14 08:23:00,
2013-03-14 04:28:00,29.1,23.4,29.76,NW,305,0.0,0.0,79,0.00,,FEW090,0.00,0.00,VWS V14.01,2013-03-14 08:28:00,
2013-03-14 04:33:00,29.0,23.0,29.75,NW,305,0.0,0.0,78,0.00,,FEW090,0.00,0.00,VWS V14.01,2013-03-14 08:33:00,
2013-03-14 04:38:00,28.9,22.9,29.75,NW,305,0.0,0.0,78,0.00,,FEW090,0.00,0.00,VWS V14.01,2013-03-14 08:38:00,
2013-03-14 04:43:00,28.8,22.5,29.75,NW,305,0.0,0.0,77,0.00,,FEW090,0.00,0.00,VWS V14.01,2013-03-14 08:43:00,
2013-03-14 04:48:00,28.7,22.7,29.76,NW,305,0.0,0.0,78,0.00,,FEW090,0.00,0.00,VWS V14.01,2013-03-14 08:48:00,
2013-03-14 04:53:00,28.6,22.6,29.76,NW,305,0.0,0.0,78,0.00,,FEW090,0.00,0.00,VWS V14.01,2013-03-14 08:53:00,
2013-03-14 04:59:00,28.5,22.5,29.76,NW,305,0.0,0.0,78,0.00,,FEW090,0.00,0.00,VWS V14.01,2013-03-14 08:59:00,
2013-03-14 05:04:00,28.4,22.4,29.76,NW,305,0.0,1.0,78,0.00,,FEW090,0.00,0.00,VWS V14.01,2013-03-14 09:04:00,
2013-03-14 05:09:00,28.4,22.1,29.76,NW,305,0.0,1.0,77,0.00,,FEW090,0.00,0.00,VWS V14.01,2013-03-14 09:09:00,
2013-03-14 05:14:00,28.3,22.0,29.76,NW,305,0.0,0.0,77,0.00,,FEW090,0.00,0.00,VWS V14.01,2013-03-14 09:14:00,
2013-03-14 05:19:00,28.3,21.7,29.76,NW,305,0.0,0.0,76,0.00,,FEW090,0.00,0.00,VWS V14.01,2013-03-14 09:19:00,
2013-03-14 05:24:00,28.2,21.6,29.76,NW,305,0.0,0.0,76,0.00,,FEW090,0.00,0.00,VWS V14.01,2013-03-14 09:24:00,
2013-03-14 05:29:00,28.1,21.5,29.77,NW,305,0.0,0.0,76,0.00,,FEW090,0.00,0.00,VWS V14.01,2013-03-14 09:29:00,
2013-03-14 05:34:00,28.1,21.5,29.77,NW,305,0.0,0.0,76,0.00,,FEW090,0.00,0.00,VWS V14.01,2013-03-14 09:34:00,
2013-03-14 05:39:00,28.1,21.5,29.77,NW,305,0.0,0.0,76,0.00,,FEW090,0.00,0.00,VWS V14.01,2013-03-14 09:39:00,
2013-03-14 05:44:00,28.2,21.6,29.77,NW,305,0.0,0.0,76,0.00,,FEW090,0.00,0.00,VWS V14.01,2013-03-14 09:44:00,
2013-03-14 05:49:00,28.2,21.3,29.77,NW,305,0.0,0.0,75,0.00,,FEW090,0.00,0.00,VWS V14.01,2013-03-14 09:49:00,
2013-03-14 05:54:00,28.2,21.0,29.77,NW,305,0.0,1.0,74,0.00,,FEW090,0.00,0.00,VWS V14.01,2013-03-14 09:54:00,
2013-03-14 05:59:00,28.3,21.1,29.77,NW,305,0.0,1.0,74,0.00,,FEW090,0.00,0.00,VWS V14.01,2013-03-14 09:59:00,
2013-03-14 06:04:00,28.4,20.2,29.77,NW,305,0.0,2.0,71,0.00,,OVC085,0.00,0.00,VWS V14.01,2013-03-14 10:04:00,
2013-03-14 06:09:00,28.5,20.0,29.77,NW,305,0.0,2.0,70,0.00,,OVC085,0.00,0.00,VWS V14.01,2013-03-14 10:09:00,
2013-03-14 06:14:00,28.7,19.5,29.77,WNW,300,0.0,3.0,68,0.00,,OVC085,0.00,0.00,VWS V14.01,2013-03-14 10:14:00,
2013-03-14 06:19:00,28.7,19.5,29.78,WNW,300,0.0,3.0,68,0.00,,OVC085,0.00,0.00,VWS V14.01,2013-03-14 10:19:00,
2013-03-14 06:24:00,28.7,19.5,29.78,WNW,300,2.0,2.0,68,0.00,,OVC085,0.00,0.00,VWS V14.01,2013-03-14 10:24:00,
2013-03-14 06:29:00,28.7,19.5,29.78,WNW,300,0.0,2.0,68,0.00,,OVC085,0.00,0.00,VWS V14.01,2013-03-14 10:29:00,
2013-03-14 06:34:00,28.8,19.6,29.78,SW,231,2.0,3.0,68,0.00,,OVC085,0.00,0.00,VWS V14.01,2013-03-14 10:34:00,
2013-03-14 06:39:00,28.9,19.7,29.78,NW,314,0.0,6.0,68,0.00,,OVC085,0.00,0.00,VWS V14.01,2013-03-14 10:39:00,
2013-03-14 06:44:00,29.0,19.8,29.78,NW,323,0.0,5.0,68,0.00,,OVC085,0.00,0.00,VWS V14.01,2013-03-14 10:44:00,
2013-03-14 06:49:00,29.2,18.9,29.78,WSW,244,0.0,5.0,65,0.00,,OVC085,0.00,0.00,VWS V14.01,2013-03-14 10:49:00,
2013-03-14 06:54:00,29.4,19.1,29.78,WNW,285,1.0,3.0,65,0.00,,OVC085,0.00,0.00,VWS V14.01,2013-03-14 10:54:00,
2013-03-14 06:59:00,29.5,19.2,29.78,SSW,207,0.0,6.0,65,0.00,,OVC085,0.00,0.00,VWS V14.01,2013-03-14 10:59:00,
2013-03-14 07:04:00,29.6,19.3,29.78,SSW,208,0.0,1.0,65,0.00,,OVC085,0.00,0.00,VWS V14.01,2013-03-14 11:04:00,
2013-03-14 07:09:00,29.6,18.6,29.78,North,355,0.0,4.0,63,0.00,,OVC085,0.00,5.00,VWS V14.01,2013-03-14 11:09:00,
2013-03-14 07:14:00,29.6,19.3,29.78,North,355,0.0,1.0,65,0.00,,OVC085,0.00,9.00,VWS V14.01,2013-03-14 11:14:00,
2013-03-14 07:19:00,29.6,18.6,29.79,SSW,208,0.0,2.0,63,0.00,,OVC085,0.00,11.00,VWS V14.01,2013-03-14 11:19:00,
2013-03-14 07:24:00,29.6,18.6,29.78,NNW,340,0.0,3.0,63,0.00,,OVC085,0.00,14.00,VWS V14.01,2013-03-14 11:24:00,
2013-03-14 07:29:00,29.7,18.7,29.78,WSW,254,0.0,3.0,63,0.00,,OVC085,0.00,18.00,VWS V14.01,2013-03-14 11:29:00,
2013-03-14 07:34:00,29.7,19.0,29.78,West,263,0.0,2.0,64,0.00,,OVC085,0.00,23.00,VWS V14.01,2013-03-14 11:34:00,
2013-03-14 07:39:00,29.7,19.0,29.78,NW,313,0.0,2.0,64,0.00,,OVC085,0.00,26.00,VWS V14.01,2013-03-14 11:39:00,
2013-03-14 07:44:00,29.7,18.3,29.78,WNW,301,0.0,2.0,62,0.00,,OVC085,0.00,33.00,VWS V14.01,2013-03-14 11:44:00,
2013-03-14 07:49:00,29.8,18.8,29.78,WNW,300,0.0,2.0,63,0.00,,OVC085,0.00,42.00,VWS V14.01,2013-03-14 11:49:00,
2013-03-14 07:54:00,29.9,19.2,29.79,WSW,246,0.0,2.0,64,0.00,,OVC085,0.00,47.00,VWS V14.01,2013-03-14 11:54:00,
2013-03-14 07:59:00,29.9,18.9,29.79,NNE,17,0.0,3.0,63,0.00,,OVC085,0.00,56.00,VWS V14.01,2013-03-14 11:59:00,
2013-03-14 08:04:00,30.1,18.3,29.79,NW,321,1.0,4.0,61,0.00,,BKN090,0.00,63.00,VWS V14.01,2013-03-14 12:04:00,
2013-03-14 08:09:00,30.2,18.4,29.79,WSW,244,0.0,4.0,61,0.00,,BKN090,0.00,76.00,VWS V14.01,2013-03-14 12:09:00,
2013-03-14 08:14:00,30.3,18.9,29.79,WSW,244,2.0,2.0,62,0.00,,BKN090,0.00,79.00,VWS V14.01,2013-03-14 12:14:00,
2013-03-14 08:19:00,30.5,18.7,29.79,WSW,248,0.0,2.0,61,0.00,,BKN090,0.00,74.00,VWS V14.01,2013-03-14 12:19:00,
2013-03-14 08:24:00,30.6,18.4,29.79,WSW,250,0.0,2.0,60,0.00,,BKN090,0.00,88.00,VWS V14.01,2013-03-14 12:24:00,
2013-03-14 08:29:00,30.7,18.9,29.79,WNW,289,0.0,2.0,61,0.00,,BKN090,0.00,109.00,VWS V14.01,2013-03-14 12:29:00,
2013-03-14 08:34:00,30.8,18.6,29.79,NNW,344,1.0,3.0,60,0.00,,BKN090,0.00,114.00,VWS V14.01,2013-03-14 12:34:00,
2013-03-14 08:39:00,31.0,19.1,29.79,SW,230,1.0,5.0,61,0.00,,BKN090,0.00,118.00,VWS V14.01,2013-03-14 12:39:00,
2013-03-14 08:44:00,31.1,18.9,29.79,NW,325,0.0,3.0,60,0.00,,BKN090,0.00,125.00,VWS V14.01,2013-03-14 12:44:00,
2013-03-14 08:49:00,31.3,18.6,29.79,SSW,192,0.0,5.0,59,0.00,,BKN090,0.00,123.00,VWS V14.01,2013-03-14 12:49:00,
2013-03-14 08:54:00,31.3,19.0,29.79,SW,222,0.0,3.0,60,0.00,,BKN090,0.00,121.00,VWS V14.01,2013-03-14 12:54:00,
2013-03-14 08:59:00,31.3,18.6,29.80,WNW,286,1.0,4.0,59,0.00,,BKN090,0.00,139.00,VWS V14.01,2013-03-14 12:59:00,
2013-03-14 09:04:00,31.4,19.1,29.79,West,272,0.0,3.0,60,0.00,,BKN070,0.00,148.00,VWS V14.01,2013-03-14 13:04:00,
2013-03-14 09:09:00,31.5,19.6,29.80,NNW,338,0.0,3.0,61,0.00,,BKN070,0.00,163.00,VWS V14.01,2013-03-14 13:09:00,
2013-03-14 09:14:00,31.7,19.0,29.79,West,264,2.0,3.0,59,0.00,,BKN070,0.00,172.00,VWS V14.01,2013-03-14 13:14:00,
2013-03-14 09:19:00,31.8,18.7,29.80,North,355,1.0,3.0,58,0.00,,BKN070,0.00,156.00,VWS V14.01,2013-03-14 13:19:00,
2013-03-14 09:24:00,31.8,18.3,29.80,NW,313,1.0,4.0,57,0.00,,BKN070,0.00,169.00,VWS V14.01,2013-03-14 13:24:00,
2013-03-14 09:29:00,31.9,19.2,29.80,South,190,0.0,4.0,59,0.00,,BKN070,0.00,186.00,VWS V14.01,2013-03-14 13:29:00,
2013-03-14 09:34:00,32.0,18.9,29.79,NW,322,3.0,6.0,58,0.00,,BKN070,0.00,213.00,VWS V14.01,2013-03-14 13:34:00,
2013-03-14 09:40:00,32.0,18.5,29.79,WNW,296,0.0,6.0,57,0.00,,BKN070,0.00,223.00,VWS V14.01,2013-03-14 13:40:00,
2013-03-14 09:45:00,32.3,18.4,29.79,West,281,0.0,4.0,56,0.00,,BKN070,0.00,213.00,VWS V14.01,2013-03-14 13:45:00,
2013-03-14 09:50:00,32.4,18.5,29.79,WNW,286,0.0,4.0,56,0.00,,BKN070,0.00,207.00,VWS V14.01,2013-03-14 13:50:00,
2013-03-14 09:55:00,32.5,18.1,29.79,NW,325,1.0,5.0,55,0.00,,BKN070,0.00,186.00,VWS V14.01,2013-03-14 13:55:00,
2013-03-14 10:00:00,32.5,17.7,29.79,West,265,0.0,5.0,54,0.00,,BKN070,0.00,176.00,VWS V14.01,2013-03-14 14:00:00,
2013-03-14 10:05:00,32.3,16.7,29.79,SW,226,0.0,6.0,52,0.00,,OVC090,0.00,193.00,VWS V14.01,2013-03-14 14:05:00,
2013-03-14 10:10:00,32.1,16.9,29.79,WNW,282,0.0,6.0,53,0.00,,OVC090,0.00,225.00,VWS V14.01,2013-03-14 14:10:00,
2013-03-14 10:15:00,32.1,17.3,29.79,WSW,240,0.0,3.0,54,0.00,,OVC090,0.00,230.00,VWS V14.01,2013-03-14 14:15:00,
2013-03-14 10:20:00,32.3,16.7,29.79,SSW,196,1.0,4.0,52,0.00,,OVC090,0.00,230.00,VWS V14.01,2013-03-14 14:20:00,
2013-03-14 10:25:00,32.5,16.4,29.78,NNE,24,0.0,4.0,51,0.00,,OVC090,0.00,236.00,VWS V14.01,2013-03-14 14:25:00,
2013-03-14 10:30:00,32.4,16.8,29.78,WNW,294,0.0,4.0,52,0.00,,OVC090,0.00,223.00,VWS V14.01,2013-03-14 14:30:00,
2013-03-14 10:35:00,32.4,16.8,29.78,West,275,1.0,9.0,52,0.00,,OVC090,0.00,220.00,VWS V14.01,2013-03-14 14:35:00,
2013-03-14 10:40:00,32.2,16.6,29.78,NW,309,1.0,9.0,52,0.00,,OVC090,0.00,251.00,VWS V14.01,2013-03-14 14:40:00,
2013-03-14 10:45:00,32.5,16.9,29.78,West,279,0.0,3.0,52,0.00,,OVC090,0.00,260.00,VWS V14.01,2013-03-14 14:45:00,
2013-03-14 10:50:00,32.7,16.1,29.78,NNE,19,2.0,9.0,50,0.00,,OVC090,0.00,290.00,VWS V14.01,2013-03-14 14:50:00,
2013-03-14 10:55:00,32.9,16.8,29.78,WNW,300,3.0,9.0,51,0.00,,OVC090,0.00,420.00,VWS V14.01,2013-03-14 14:55:00,
2013-03-14 11:00:00,33.2,16.6,29.78,NNW,333,0.0,9.0,50,0.00,,OVC090,0.00,313.00,VWS V14.01,2013-03-14 15:00:00,
2013-03-14 11:05:00,33.4,17.2,29.78,WSW,243,0.0,5.0,51,0.00,,BKN080,0.00,397.00,VWS V14.01,2013-03-14 15:05:00,
2013-03-14 11:10:00,33.9,17.7,29.77,SSW,200,2.0,10.0,51,0.00,,BKN080,0.00,394.00,VWS V14.01,2013-03-14 15:10:00,
2013-03-14 11:15:00,34.4,18.2,29.77,WSW,256,1.0,5.0,51,0.00,,BKN080,0.00,606.00,VWS V14.01,2013-03-14 15:15:00,
2013-03-14 11:20:00,34.8,18.5,29.77,SW,235,0.0,5.0,51,0.00,,BKN080,0.00,687.00,VWS V14.01,2013-03-14 15:20:00,
2013-03-14 11:25:00,35.5,17.3,29.77,SW,230,0.0,4.0,47,0.00,,BKN080,0.00,359.00,VWS V14.01,2013-03-14 15:25:00,
2013-03-14 11:30:00,35.3,17.1,29.77,North,350,3.0,6.0,47,0.00,,BKN080,0.00,299.00,VWS V14.01,2013-03-14 15:30:00,
2013-03-14 11:35:00,35.2,17.5,29.76,NNE,18,2.0,6.0,48,0.00,,BKN080,0.00,294.00,VWS V14.01,2013-03-14 15:35:00,
2013-03-14 11:40:00,34.9,17.7,29.76,WNW,285,0.0,1.0,49,0.00,,BKN080,0.00,213.00,VWS V14.01,2013-03-14 15:40:00,
2013-03-14 11:45:00,34.4,16.8,29.76,NNW,331,3.0,3.0,48,0.00,,BKN080,0.00,223.00,VWS V14.01,2013-03-14 15:45:00,
2013-03-14 11:50:00,34.2,17.5,29.76,SSW,208,0.0,0.0,50,0.00,,BKN080,0.00,287.00,VWS V14.01,2013-03-14 15:50:00,
2013-03-14 11:55:00,34.3,17.6,29.76,North,360,3.0,5.0,50,0.00,,BKN080,0.00,246.00,VWS V14.01,2013-03-14 15:55:00,
2013-03-14 12:00:00,34.2,17.0,29.76,WNW,298,3.0,4.0,49,0.00,,BKN080,0.00,262.00,VWS V14.01,2013-03-14 16:00:00,
2013-03-14 12:05:00,34.1,17.4,29.75,NNW,338,0.0,6.0,50,0.00,,BKN080,0.00,241.00,VWS V14.01,2013-03-14 16:05:00,
2013-03-14 12:10:00,34.1,17.0,29.75,West,261,0.0,1.0,49,0.00,,BKN080,0.00,190.00,VWS V14.01,2013-03-14 16:10:00,
2013-03-14 12:15:00,33.7,16.6,29.76,SW,227,0.0,7.0,49,0.00,,BKN080,0.00,199.00,VWS V14.01,2013-03-14 16:15:00,
2013-03-14 12:20:00,33.4,16.8,29.76,SW,214,1.0,4.0,50,0.00,,BKN080,0.00,257.00,VWS V14.01,2013-03-14 16:20:00,
2013-03-14 12:25:00,33.5,16.9,29.75,SW,220,0.0,5.0,50,0.00,,BKN080,0.00,343.00,VWS V14.01,2013-03-14 16:25:00,
2013-03-14 12:30:00,34.0,15.9,29.75,West,279,1.0,1.0,47,0.00,,BKN080,0.00,387.00,VWS V14.01,2013-03-14 16:30:00,
2013-03-14 12:35:00,34.5,15.9,29.75,West,265,1.0,8.0,46,0.00,,BKN080,0.00,962.00,VWS V14.01,2013-03-14 16:35:00,
2013-03-14 12:40:00,36.0,17.2,29.75,North,360,10.0,10.0,46,0.00,,BKN080,0.00,921.00,VWS V14.01,2013-03-14 16:40:00,
2013-03-14 12:45:00,36.7,17.9,29.74,West,268,4.0,13.0,46,0.00,,BKN080,0.00,854.00,VWS V14.01,2013-03-14 16:45:00,
2013-03-14 12:50:00,37.0,16.6,29.74,ESE,123,1.0,1.0,43,0.00,,BKN080,0.00,332.00,VWS V14.01,2013-03-14 16:50:00,
2013-03-14 12:55:00,36.5,17.7,29.74,NW,312,1.0,7.0,46,0.00,,BKN080,0.00,352.00,VWS V14.01,2013-03-14 16:55:00,
2013-03-14 13:00:00,36.2,16.4,29.74,NW,304,2.0,2.0,44,0.00,,BKN080,0.00,450.00,VWS V14.01,2013-03-14 17:00:00,
2013-03-14 13:05:00,36.4,17.1,29.74,WNW,290,0.0,7.0,45,0.00,,OVC050,0.00,566.00,VWS V14.01,2013-03-14 17:05:00,
2013-03-14 13:10:00,36.1,16.8,29.74,WNW,288,0.0,1.0,45,0.00,,OVC050,0.00,339.00,VWS V14.01,2013-03-14 17:10:00,
2013-03-14 13:15:00,35.7,17.0,29.74,SW,236,1.0,4.0,46,0.00,,OVC050,0.00,350.00,VWS V14.01,2013-03-14 17:15:00,
2013-03-14 13:20:00,35.3,16.6,29.74,WSW,248,1.0,4.0,46,0.00,,OVC050,0.00,306.00,VWS V14.01,2013-03-14 17:20:00,
2013-03-14 13:25:00,35.2,17.0,29.74,WNW,282,2.0,6.0,47,0.00,,OVC050,0.00,345.00,VWS V14.01,2013-03-14 17:25:00,
2013-03-14 13:30:00,34.8,17.1,29.74,NW,322,0.0,5.0,48,0.00,,OVC050,0.00,427.00,VWS V14.01,2013-03-14 17:30:00,
2013-03-14 13:35:00,34.6,16.5,29.74,WSW,251,6.0,9.0,47,0.00,,OVC050,0.00,422.00,VWS V14.01,2013-03-14 17:35:00,
2013-03-14 13:40:00,34.7,16.0,29.74,North,351,0.0,1.0,46,0.00,,OVC050,0.00,385.00,VWS V14.01,2013-03-14 17:40:00,
2013-03-14 13:45:00,34.8,17.1,29.74,West,273,0.0,5.0,48,0.00,,OVC050,0.00,302.00,VWS V14.01,2013-03-14 17:45:00,
2013-03-14 13:50:00,34.4,14.8,29.74,NW,316,0.0,2.0,44,0.00,,OVC050,0.00,274.00,VWS V14.01,2013-03-14 17:50:00,
2013-03-14 13:55:00,34.1,16.0,29.74,WNW,296,4.0,6.0,47,0.00,,OVC050,0.00,237.00,VWS V14.01,2013-03-14 17:55:00,
2013-03-14 14:00:00,34.0,16.4,29.74,WNW,292,0.0,2.0,48,0.00,,OVC050,0.00,255.00,VWS V14.01,2013-03-14 18:00:00,
2013-03-14 14:05:00,33.8,15.7,29.73,WSW,241,1.0,6.0,47,0.00,,OVC085,0.00,283.00,VWS V14.01,2013-03-14 18:05:00,
2013-03-14 14:10:00,33.4,15.8,29.73,WSW,250,3.0,3.0,48,0.00,,OVC085,0.00,322.00,VWS V14.01,2013-03-14 18:10:00,
2013-03-14 14:15:00,33.4,16.3,29.73,WSW,257,0.0,7.0,49,0.00,,OVC085,0.00,369.00,VWS V14.01,2013-03-14 18:15:00,
2013-03-14 14:20:00,33.6,16.5,29.73,West,276,0.0,2.0,49,0.00,,OVC085,0.00,297.00,VWS V14.01,2013-03-14 18:20:00,
2013-03-14 14:25:00,33.5,15.4,29.73,SW,236,0.0,12.0,47,0.00,,OVC085,0.00,272.00,VWS V14.01,2013-03-14 18:25:00,
2013-03-14 14:31:00,33.4,15.4,29.73,West,273,1.0,2.0,47,0.00,,OVC085,0.00,315.00,VWS V14.01,2013-03-14 18:31:00,
2013-03-14 14:36:00,33.2,15.6,29.73,NW,311,0.0,5.0,48,0.00,,OVC085,0.00,309.00,VWS V14.01,2013-03-14 18:36:00,
2013-03-14 14:41:00,33.3,16.2,29.73,WNW,300,6.0,6.0,49,0.00,,OVC085,0.00,281.00,VWS V14.01,2013-03-14 18:41:00,
2013-03-14 14:46:00,33.3,15.3,29.73,NW,316,3.0,6.0,47,0.00,,OVC085,0.00,323.00,VWS V14.01,2013-03-14 18:46:00,
2013-03-14 14:51:00,33.5,15.4,29.73,SW,227,0.0,7.0,47,0.00,,OVC085,0.00,325.00,VWS V14.01,2013-03-14 18:51:00,
2013-03-14 14:56:00,33.8,15.7,29.72,NW,319,1.0,7.0,47,0.00,,OVC085,0.00,306.00,VWS V14.01,2013-03-14 18:56:00,
2013-03-14 15:01:00,33.8,16.7,29.73,West,281,0.0,5.0,49,0.00,,OVC085,0.00,341.00,VWS V14.01,2013-03-14 19:01:00,
2013-03-14 15:06:00,33.9,16.3,29.72,WSW,252,2.0,9.0,48,0.00,,OVC080,0.00,322.00,VWS V14.01,2013-03-14 19:06:00,
2013-03-14 15:12:00,34.2,16.1,29.72,NNW,328,1.0,4.0,47,0.00,,OVC080,0.00,290.00,VWS V14.01,2013-03-14 19:12:00,
2013-03-14 15:17:00,34.4,16.8,29.72,WNW,283,0.0,5.0,48,0.00,,OVC080,0.00,288.00,VWS V14.01,2013-03-14 19:17:00,
2013-03-14 15:22:00,34.4,16.8,29.72,WSW,239,2.0,6.0,48,0.00,,OVC080,0.00,301.00,VWS V14.01,2013-03-14 19:22:00,
2013-03-14 15:27:00,34.4,15.8,29.72,North,5,1.0,9.0,46,0.00,,OVC080,0.00,302.00,VWS V14.01,2013-03-14 19:27:00,
2013-03-14 15:32:00,34.4,15.8,29.72,WSW,241,5.0,10.0,46,0.00,,OVC080,0.00,234.00,VWS V14.01,2013-03-14 19:32:00,
2013-03-14 15:37:00,34.0,15.4,29.72,SW,232,0.0,10.0,46,0.00,,OVC080,0.00,218.00,VWS V14.01,2013-03-14 19:37:00,
2013-03-14 15:42:00,33.8,15.7,29.72,NE,51,6.0,6.0,47,0.00,,OVC080,0.00,190.00,VWS V14.01,2013-03-14 19:42:00,
2013-03-14 15:47:00,33.5,15.4,29.72,West,262,0.0,10.0,47,0.00,,OVC080,0.00,144.00,VWS V14.01,2013-03-14 19:47:00,
2013-03-14 15:52:00,33.3,16.2,29.72,NNW,348,1.0,3.0,49,0.00,,OVC080,0.00,107.00,VWS V14.01,2013-03-14 19:52:00,
2013-03-14 15:57:00,33.0,15.9,29.72,NNW,343,1.0,7.0,49,0.00,,OVC080,0.00,127.00,VWS V14.01,2013-03-14 19:57:00,
2013-03-14 16:02:00,32.8,15.8,29.72,West,281,10.0,10.0,49,0.00,,OVC080,0.00,149.00,VWS V14.01,2013-03-14 20:02:00,
2013-03-14 16:07:00,32.8,15.8,29.73,WSW,254,0.0,10.0,49,0.00,,BKN080,0.00,244.00,VWS V14.01,2013-03-14 20:07:00,
2013-03-14 16:12:00,33.1,17.0,29.72,NNW,346,7.0,7.0,51,0.00,,BKN080,0.00,283.00,VWS V14.01,2013-03-14 20:12:00,
2013-03-14 16:17:00,33.9,17.2,29.72,NW,317,3.0,14.0,50,0.00,,BKN080,0.00,443.00,VWS V14.01,2013-03-14 20:17:00,
2013-03-14 16:22:00,34.4,16.3,29.72,NNW,330,0.0,6.0,47,0.00,,BKN080,0.00,329.00,VWS V14.01,2013-03-14 20:22:00,
2013-03-14 16:27:00,34.7,17.0,29.73,SW,222,0.0,9.0,48,0.00,,BKN080,0.00,408.00,VWS V14.01,2013-03-14 20:27:00,
2013-03-14 16:32:00,34.4,16.3,29.73,WSW,240,1.0,7.0,47,0.00,,BKN080,0.00,209.00,VWS V14.01,2013-03-14 20:32:00,
2013-03-14 16:37:00,34.0,16.9,29.73,NW,311,0.0,7.0,49,0.00,,BKN080,0.00,374.00,VWS V14.01,2013-03-14 20:37:00,
2013-03-14 16:42:00,34.2,16.1,29.73,WNW,284,2.0,6.0,47,0.00,,BKN080,0.00,304.00,VWS V14.01,2013-03-14 20:42:00,
2013-03-14 16:47:00,34.4,16.8,29.73,West,279,1.0,6.0,48,0.00,,BKN080,0.00,285.00,VWS V14.01,2013-03-14 20:47:00,
2013-03-14 16:52:00,34.4,17.2,29.73,West,271,2.0,10.0,49,0.00,,BKN080,0.00,202.00,VWS V14.01,2013-03-14 20:52:00,
2013-03-14 16:57:00,34.4,16.8,29.74,NNW,343,0.0,10.0,48,0.00,,BKN080,0.00,209.00,VWS V14.01,2013-03-14 20:57:00,
2013-03-14 17:02:00,33.8,16.7,29.74,WSW,240,0.0,4.0,49,0.00,,BKN080,0.00,130.00,VWS V14.01,2013-03-14 21:02:00,
2013-03-14 17:07:00,33.1,16.5,29.74,SW,228,4.0,13.0,50,0.00,,SCT075,0.00,165.00,VWS V14.01,2013-03-14 21:07:00,
2013-03-14 17:12:00,32.3,16.2,29.74,West,267,4.0,4.0,51,0.00,,SCT075,0.00,128.00,VWS V14.01,2013-03-14 21:12:00,
2013-03-14 17:17:00,32.2,15.7,29.74,WNW,292,1.0,12.0,50,0.00,,SCT075,0.00,125.00,VWS V14.01,2013-03-14 21:17:00,
2013-03-14 17:22:00,32.0,16.8,29.75,North,355,0.0,5.0,53,0.00,,SCT075,0.00,65.00,VWS V14.01,2013-03-14 21:22:00,
2013-03-14 17:27:00,31.6,15.6,29.75,SW,222,2.0,6.0,51,0.00,,SCT075,0.00,49.00,VWS V14.01,2013-03-14 21:27:00,
2013-03-14 17:32:00,30.9,15.4,29.75,West,275,3.0,5.0,52,0.00,,SCT075,0.00,51.00,VWS V14.01,2013-03-14 21:32:00,
2013-03-14 17:37:00,30.4,15.3,29.75,North,351,3.0,7.0,53,0.00,,SCT075,0.00,42.00,VWS V14.01,2013-03-14 21:37:00,
2013-03-14 17:43:00,29.9,14.4,29.75,North,355,0.0,3.0,52,0.00,,SCT075,0.00,44.00,VWS V14.01,2013-03-14 21:43:00,
2013-03-14 17:48:00,29.7,15.1,29.75,WSW,254,4.0,7.0,54,0.00,,SCT075,0.00,39.00,VWS V14.01,2013-03-14 21:48:00,
2013-03-14 17:53:00,29.5,15.3,29.76,NNW,342,1.0,3.0,55,0.00,,SCT075,0.00,40.00,VWS V14.01,2013-03-14 21:53:00,
2013-03-14 17:58:00,29.3,14.3,29.76,NW,319,2.0,6.0,53,0.00,,SCT075,0.00,44.00,VWS V14.01,2013-03-14 21:58:00,
2013-03-14 18:02:00,29.2,14.2,29.76,WSW,257,1.0,4.0,53,0.00,,SCT075,0.00,60.00,VWS V14.01,2013-03-14 22:02:00,
2013-03-14 18:07:00,29.0,14.4,29.76,WSW,243,6.0,7.0,54,0.00,,SCT070,0.00,40.00,VWS V14.01,2013-03-14 22:07:00,
2013-03-14 18:12:00,28.9,13.9,29.76,SW,215,1.0,7.0,53,0.00,,SCT070,0.00,37.00,VWS V14.01,2013-03-14 22:12:00,
2013-03-14 18:17:00,28.8,13.8,29.76,NW,316,0.0,7.0,53,0.00,,SCT070,0.00,33.00,VWS V14.01,2013-03-14 22:17:00,
2013-03-14 18:22:00,28.6,13.6,29.77,WSW,242,0.0,3.0,53,0.00,,SCT070,0.00,28.00,VWS V14.01,2013-03-14 22:22:00,
2013-03-14 18:28:00,28.4,13.9,29.77,North,360,0.0,7.0,54,0.00,,SCT070,0.00,23.00,VWS V14.01,2013-03-14 22:28:00,
2013-03-14 18:33:00,28.2,13.7,29.77,WNW,295,0.0,5.0,54,0.00,,SCT070,0.00,19.00,VWS V14.01,2013-03-14 22:33:00,
2013-03-14 18:38:00,28.0,14.3,29.78,NW,321,5.0,5.0,56,0.00,,SCT070,0.00,18.00,VWS V14.01,2013-03-14 22:38:00,
2013-03-14 18:43:00,27.9,13.8,29.78,SW,216,0.0,3.0,55,0.00,,SCT070,0.00,11.00,VWS V14.01,2013-03-14 22:43:00,
2013-03-14 18:48:00,27.8,13.8,29.78,WNW,298,1.0,7.0,55,0.00,,SCT070,0.00,0.00,VWS V14.01,2013-03-14 22:48:00,
2013-03-14 18:53:00,27.7,13.6,29.78,WNW,291,0.0,3.0,55,0.00,,SCT070,0.00,0.00,VWS V14.01,2013-03-14 22:53:00,
2013-03-14 18:58:00,27.6,14.0,29.79,SW,235,0.0,6.0,56,0.00,,SCT070,0.00,0.00,VWS V14.01,2013-03-14 22:58:00,
2013-03-14 19:03:00,27.4,13.8,29.79,WSW,251,0.0,4.0,56,0.00,,SCT055,0.00,0.00,VWS V14.01,2013-03-14 23:03:00,
2013-03-14 19:08:00,27.3,13.3,29.79,WSW,250,1.0,8.0,55,0.00,,SCT055,0.00,0.00,VWS V14.01,2013-03-14 23:08:00,
2013-03-14 19:13:00,27.1,13.5,29.80,SSW,195,2.0,4.0,56,0.00,,SCT055,0.00,0.00,VWS V14.01,2013-03-14 23:13:00,
2013-03-14 19:18:00,26.9,13.3,29.80,West,263,0.0,5.0,56,0.00,,SCT055,0.00,0.00,VWS V14.01,2013-03-14 23:18:00,
2013-03-14 19:23:00,26.6,13.0,29.80,West,267,1.0,6.0,56,0.00,,SCT055,0.00,0.00,VWS V14.01,2013-03-14 23:23:00,
2013-03-14 19:28:00,26.4,12.0,29.80,NW,325,0.0,19.0,54,0.00,,SCT055,0.00,0.00,VWS V14.01,2013-03-14 23:28:00,
2013-03-14 19:33:00,26.2,11.0,29.81,SSW,211,0.0,8.0,52,0.00,,SCT055,0.00,0.00,VWS V14.01,2013-03-14 23:33:00,
2013-03-14 19:38:00,26.0,10.8,29.81,SSW,207,1.0,13.0,52,0.00,,SCT055,0.00,0.00,VWS V14.01,2013-03-14 23:38:00,
2013-03-14 19:43:00,25.8,10.6,29.82,NW,326,3.0,10.0,52,0.00,,SCT055,0.00,0.00,VWS V14.01,2013-03-14 23:43:00,
2013-03-14 19:48:00,25.5,9.9,29.81,SSW,211,4.0,14.0,51,0.00,,SCT055,0.00,0.00,VWS V14.01,2013-03-14 23:48:00,
2013-03-14 19:53:00,25.3,10.1,29.82,WSW,249,0.0,11.0,52,0.00,,SCT055,0.00,0.00,VWS V14.01,2013-03-14 23:53:00,
2013-03-14 19:58:00,25.1,10.0,29.82,West,268,3.0,11.0,52,0.00,,SCT055,0.00,0.00,VWS V14.01,2013-03-14 23:58:00,
2013-03-14 20:03:00,24.9,9.8,29.82,West,270,0.0,12.0,52,0.00,,BKN042,0.00,0.00,VWS V14.01,2013-03-15 00:03:00,
2013-03-14 20:08:00,24.7,10.0,29.83,West,275,0.0,12.0,53,0.00,,BKN042,0.00,0.00,VWS V14.01,2013-03-15 00:08:00,
2013-03-14 20:13:00,24.5,10.2,29.83,North,5,0.0,5.0,54,0.00,,BKN042,0.00,0.00,VWS V14.01,2013-03-15 00:13:00,
2013-03-14 20:18:00,24.4,9.7,29.83,NNE,28,0.0,5.0,53,0.00,,BKN042,0.00,0.00,VWS V14.01,2013-03-15 00:18:00,
2013-03-14 20:23:00,24.2,10.0,29.83,NW,320,0.0,9.0,54,0.00,,BKN042,0.00,0.00,VWS V14.01,2013-03-15 00:23:00,
2013-03-14 20:28:00,24.0,9.8,29.84,North,350,1.0,14.0,54,0.00,,BKN042,0.00,0.00,VWS V14.01,2013-03-15 00:28:00,
2013-03-14 20:33:00,24.0,10.2,29.84,NW,323,0.0,4.0,55,0.00,,BKN042,0.00,0.00,VWS V14.01,2013-03-15 00:33:00,
2013-03-14 20:38:00,23.9,9.7,29.84,WNW,298,2.0,11.0,54,0.00,,BKN042,0.00,0.00,VWS V14.01,2013-03-15 00:38:00,
2013-03-14 20:43:00,23.8,10.0,29.84,West,273,0.0,7.0,55,0.00,,BKN042,0.00,0.00,VWS V14.01,2013-03-15 00:43:00,
2013-03-14 20:48:00,23.7,9.9,29.84,NW,325,0.0,7.0,55,0.00,,BKN042,0.00,0.00,VWS V14.01,2013-03-15 00:48:00,
2013-03-14 20:53:00,23.6,10.6,29.84,NNW,346,0.0,7.0,57,0.00,,BKN042,0.00,0.00,VWS V14.01,2013-03-15 00:53:00,
2013-03-14 20:58:00,23.4,10.4,29.84,SSW,202,0.0,7.0,57,0.00,,BKN042,0.00,0.00,VWS V14.01,2013-03-15 00:58:00,
2013-03-14 21:03:00,23.4,10.8,29.84,North,360,2.0,5.0,58,0.00,,BKN042,0.00,0.00,VWS V14.01,2013-03-15 01:03:00,
2013-03-14 21:08:00,23.3,10.7,29.84,NW,304,0.0,9.0,58,0.00,,BKN042,0.00,0.00,VWS V14.01,2013-03-15 01:08:00,
2013-03-14 21:13:00,23.2,11.0,29.84,SSE,147,0.0,6.0,59,0.00,,BKN042,0.00,0.00,VWS V14.01,2013-03-15 01:13:00,
2013-03-14 21:18:00,23.1,11.3,29.84,North,351,1.0,9.0,60,0.00,,BKN042,0.00,0.00,VWS V14.01,2013-03-15 01:18:00,
2013-03-14 21:23:00,23.0,11.2,29.85,NNE,28,7.0,15.0,60,0.00,,BKN042,0.00,0.00,VWS V14.01,2013-03-15 01:23:00,
2013-03-14 21:28:00,22.9,11.5,29.85,NNW,327,5.0,15.0,61,0.00,,BKN042,0.00,0.00,VWS V14.01,2013-03-15 01:28:00,
2013-03-14 21:34:00,22.8,11.0,29.85,West,260,0.0,6.0,60,0.00,,BKN042,0.00,0.00,VWS V14.01,2013-03-15 01:34:00,
2013-03-14 21:39:00,22.7,10.9,29.85,NW,318,0.0,6.0,60,0.00,,BKN042,0.00,0.00,VWS V14.01,2013-03-15 01:39:00,
2013-03-14 21:44:00,22.6,11.2,29.85,NW,306,0.0,9.0,61,0.00,,BKN042,0.00,0.00,VWS V14.01,2013-03-15 01:44:00,
2013-03-14 21:49:00,22.5,10.7,29.84,NW,316,2.0,9.0,60,0.00,,BKN042,0.00,0.00,VWS V14.01,2013-03-15 01:49:00,
2013-03-14 21:54:00,22.5,10.7,29.84,ENE,58,2.0,11.0,60,0.00,,BKN042,0.00,0.00,VWS V14.01,2013-03-15 01:54:00,
2013-03-14 21:59:00,22.4,11.0,29.85,NNW,336,3.0,11.0,61,0.00,,BKN042,0.00,0.00,VWS V14.01,2013-03-15 01:59:00,
2013-03-14 22:04:00,22.2,10.8,29.85,WNW,296,1.0,10.0,61,0.00,,SCT095,0.00,0.00,VWS V14.01,2013-03-15 02:04:00,
2013-03-14 22:09:00,22.2,10.8,29.85,NNW,345,0.0,10.0,61,0.00,,SCT095,0.00,0.00,VWS V14.01,2013-03-15 02:09:00,
2013-03-14 22:14:00,22.1,11.1,29.85,West,279,1.0,5.0,62,0.00,,SCT095,0.00,0.00,VWS V14.01,2013-03-15 02:14:00,
2013-03-14 22:19:00,22.1,10.7,29.85,WNW,288,0.0,11.0,61,0.00,,SCT095,0.00,0.00,VWS V14.01,2013-03-15 02:19:00,
2013-03-14 22:24:00,22.0,10.6,29.85,NW,317,1.0,10.0,61,0.00,,SCT095,0.00,0.00,VWS V14.01,2013-03-15 02:24:00,
2013-03-14 22:29:00,21.9,10.5,29.85,WSW,250,1.0,10.0,61,0.00,,SCT095,0.00,0.00,VWS V14.01,2013-03-15 02:29:00,
2013-03-14 22:34:00,21.8,10.1,29.85,WSW,254,0.0,6.0,60,0.00,,SCT095,0.00,0.00,VWS V14.01,2013-03-15 02:34:00,
2013-03-14 22:39:00,21.7,10.0,29.85,WNW,286,1.0,11.0,60,0.00,,SCT095,0.00,0.00,VWS V14.01,2013-03-15 02:39:00,
2013-03-14 22:44:00,21.6,9.5,29.85,NW,326,0.0,3.0,59,0.00,,SCT095,0.00,0.00,VWS V14.01,2013-03-15 02:44:00,
2013-03-14 22:49:00,21.5,9.4,29.85,WNW,292,0.0,5.0,59,0.00,,SCT095,0.00,0.00,VWS V14.01,2013-03-15 02:49:00,
2013-03-14 22:54:00,21.4,8.9,29.85,NW,317,0.0,7.0,58,0.00,,SCT095,0.00,0.00,VWS V14.01,2013-03-15 02:54:00,
2013-03-14 22:59:00,21.3,8.4,29.85,WNW,303,8.0,10.0,57,0.00,,SCT095,0.00,0.00,VWS V14.01,2013-03-15 02:59:00,
2013-03-14 23:04:00,21.2,8.4,29.85,West,269,4.0,13.0,57,0.00,,CLR,0.00,0.00,VWS V14.01,2013-03-15 03:04:00,
2013-03-14 23:09:00,21.1,7.9,29.85,NNW,338,0.0,13.0,56,0.00,,CLR,0.00,0.00,VWS V14.01,2013-03-15 03:09:00,
2013-03-14 23:14:00,21.1,8.3,29.85,West,272,0.0,12.0,57,0.00,,CLR,0.00,0.00,VWS V14.01,2013-03-15 03:14:00,
2013-03-14 23:19:00,21.0,8.2,29.84,NNW,332,0.0,12.0,57,0.00,,CLR,0.00,0.00,VWS V14.01,2013-03-15 03:19:00,
2013-03-14 23:24:00,20.9,8.1,29.85,North,350,4.0,11.0,57,0.00,,CLR,0.00,0.00,VWS V14.01,2013-03-15 03:24:00,
2013-03-14 23:30:00,20.9,8.1,29.85,WNW,290,2.0,14.0,57,0.00,,CLR,0.00,0.00,VWS V14.01,2013-03-15 03:30:00,
2013-03-14 23:35:00,20.9,8.1,29.85,West,270,1.0,7.0,57,0.00,,CLR,0.00,0.00,VWS V14.01,2013-03-15 03:35:00,
2013-03-14 23:40:00,20.8,8.4,29.85,West,259,1.0,7.0,58,0.00,,CLR,0.00,0.00,VWS V14.01,2013-03-15 03:40:00,
2013-03-14 23:45:00,20.8,8.0,29.85,SSW,201,2.0,9.0,57,0.00,,CLR,0.00,0.00,VWS V14.01,2013-03-15 03:45:00,
2013-03-14 23:50:00,20.7,8.3,29.85,NNW,327,0.0,9.0,58,0.00,,CLR,0.00,0.00,VWS V14.01,2013-03-15 03:50:00,
2013-03-14 23:55:00,20.7,8.6,29.85,SW,235,0.0,4.0,59,0.00,,CLR,0.00,0.00,VWS V14.01,2013-03-15 03:55:00,